Wind_Speed
14 14 13 13 12 12 12 12 12 13 13 14 15 15 15 16 16 16 16 16 16 17 17 18 18 18 18 18 19 19 20 20 21 22 22 23 24 26 27 28 29 29 29 29 29 29 29 29 29 29 29 29 29 30 31 31 32 33 34 34 35 35 36 36 36 37 37 37 37
15 15 15 14 14 14 14 14 14 14 14 14 15 15 15 15 15 16 16 16 17 17 17 18 18 18 18 18 19 19 20 20 21 21 22 23 24 24 25 26 27 28 29 29 29 29 28 28 28 28 28 28 29 29 30 31 31 32 33 34 35 35 35 36 37 37 38 38 38
15 16 16 16 16 16 16 16 16 16 16 16 15 15 15 15 15 16 17 17 17 17 18 18 18 19 19 19 19 20 20 21 21 22 22 23 23 24 24 25 25 26 27 28 28 29 28 28 28 29 29 28 28 29 29 30 30 31 32 33 34 33 33 34 36 36 36 36 37
15 16 16 17 17 17 17 17 18 18 17 17 17 16 16 15 16 16 17 18 18 18 19 19 19 19 20 20 20 21 21 21 22 22 23 23 24 24 24 24 25 25 26 27 27 28 29 30 29 29 29 29 30 29 29 29 29 30 31 32 32 32 32 33 34 34 34 34 35
15 16 16 17 17 17 17 18 18 19 18 18 18 17 17 16 16 17 18 19 19 19 19 19 20 20 20 20 21 21 22 22 22 23 23 23 24 24 24 24 25 25 26 26 27 27 28 29 29 29 29 29 30 30 30 30 30 30 30 31 31 31 31 32 32 32 32 32 33
16 16 16 17 17 17 18 18 19 19 19 19 18 18 17 17 17 18 19 19 20 20 19 19 19 20 20 21 21 22 22 23 23 23 23 23 23 24 24 24 25 25 25 26 27 27 27 28 28 28 28 29 29 30 31 31 31 30 30 30 31 31 31 31 31 31 32 32 32
16 16 16 16 16 17 18 18 19 19 19 19 18 18 18 18 18 19 19 20 20 20 19 19 19 20 20 21 22 22 22 23 23 22 22 23 23 24 24 24 25 25 25 25 26 26 27 27 27 26 26 27 28 29 30 31 31 30 30 30 31 31 31 31 31 31 31 32 33
18 18 17 16 16 17 18 18 19 19 19 19 19 18 18 18 19 19 20 20 20 20 20 20 20 21 21 22 22 22 22 22 22 22 22 22 23 23 24 24 24 24 25 25 25 25 26 26 26 26 26 26 27 28 29 30 31 30 30 30 31 32 32 32 32 32 32 32 33
20 19 18 17 17 18 18 19 19 19 19 19 19 19 19 19 20 20 21 21 21 21 21 21 21 22 22 23 23 22 22 22 22 22 22 22 23 23 24 24 24 24 24 24 24 25 25 25 26 26 26 26 27 28 30 31 32 32 32 32 32 33 33 32 32 33 33 33 33
21 20 19 19 19 19 19 20 20 19 19 19 19 20 20 20 21 21 21 22 22 22 22 22 23 23 24 23 23 23 23 23 23 23 23 23 23 23 23 23 24 24 24 24 24 24 25 24 25 25 26 27 28 29 31 32 33 33 33 33 33 33 34 34 34 34 34 34 34
20 20 20 19 20 20 20 20 20 20 19 20 20 20 21 21 21 21 21 21 22 22 22 23 23 24 24 24 24 24 24 24 24 24 25 24 24 24 24 24 24 24 24 24 24 24 23 23 24 25 26 27 28 29 30 31 32 32 33 33 34 35 35 36 36 36 36 36 36
20 20 19 19 20 20 20 20 20 20 20 20 20 21 21 21 21 21 21 21 22 22 23 23 24 24 24 25 25 25 26 26 26 26 25 25 25 25 25 25 25 25 25 25 25 24 23 23 24 25 26 27 28 28 29 30 30 31 31 32 33 34 34 35 36 36 35 35 36
19 19 19 20 20 20 20 20 20 19 19 20 20 21 21 21 21 21 21 22 22 23 23 24 24 24 25 26 26 27 27 27 27 26 26 26 26 26 26 26 27 27 27 27 26 25 25 25 25 25 26 27 27 27 28 29 30 30 30 31 31 32 32 33 34 34 35 35 35
19 19 19 20 20 20 20 20 19 19 19 20 20 21 21 21 21 22 22 23 23 23 24 24 24 25 26 27 27 27 27 27 27 27 27 27 27 27 28 28 28 28 28 28 28 28 27 27 27 27 27 28 28 28 29 29 29 29 30 30 30 31 31 31 32 32 33 33 33
18 19 19 19 20 20 20 19 19 19 19 20 21 21 21 21 22 22 23 23 24 24 24 25 25 26 27 27 28 28 28 27 27 27 28 28 28 28 29 29 30 30 30 30 30 29 29 29 29 29 29 29 30 30 29 29 29 29 29 29 29 29 29 29 30 30 30 30 31
18 19 19 19 19 20 19 19 19 19 20 20 21 22 22 22 22 23 23 24 24 24 25 26 26 27 28 28 28 28 28 28 28 28 28 29 29 30 31 31 31 31 31 31 31 31 31 31 30 30 31 31 31 31 30 30 29 29 29 28 28 28 28 28 29 29 29 29 29
19 19 19 19 19 20 20 20 19 20 20 21 22 22 22 23 23 24 24 25 25 25 26 27 27 28 28 28 28 28 28 28 28 28 29 30 30 31 32 32 32 32 32 31 31 31 31 31 31 31 31 31 32 31 31 31 30 29 29 28 28 28 28 28 28 28 28 29 29
19 19 19 20 20 20 20 20 21 21 22 22 23 23 23 24 24 25 25 26 26 27 27 28 28 28 28 28 28 28 28 28 29 30 30 31 31 32 32 32 32 32 32 31 31 31 31 31 31 31 31 31 31 31 30 30 29 29 28 28 27 27 27 27 27 28 28 28 29
20 20 20 21 21 21 21 22 22 23 23 23 24 24 24 25 26 26 27 27 27 28 29 29 29 29 29 29 29 29 29 29 30 31 31 31 32 32 32 32 32 32 32 31 31 31 30 30 30 29 29 29 29 28 28 28 27 27 27 27 27 27 27 27 27 28 28 29 29
20 21 21 21 22 22 23 23 24 24 25 25 25 26 26 27 27 27 28 28 29 30 30 30 30 30 30 30 30 30 30 30 31 31 32 32 32 32 32 32 31 31 31 31 30 30 29 28 28 28 27 27 27 26 26 26 26 26 26 26 26 27 27 27 28 28 29 29 30
21 21 22 22 22 23 24 25 25 26 26 27 27 27 28 28 28 28 29 29 30 30 30 30 30 30 30 31 31 31 31 31 31 32 32 31 31 31 31 31 31 31 30 30 29 28 27 27 26 26 26 25 25 25 25 25 25 26 26 26 27 27 28 28 29 29 29 29 30
21 21 22 22 23 24 25 26 26 27 27 28 28 28 29 29 29 29 30 30 31 31 31 30 30 31 31 31 32 32 32 32 32 31 31 31 31 31 31 30 30 30 30 29 28 27 26 26 26 26 25 25 25 25 25 25 25 26 26 27 28 29 29 29 30 30 30 30 30
22 22 22 22 23 24 25 26 27 27 28 28 28 29 29 29 30 30 30 31 31 31 30 30 30 31 31 32 32 32 32 32 32 31 31 30 30 30 30 30 30 30 29 27 26 26 26 26 27 27 26 26 26 26 26 26 26 26 27 27 28 29 29 30 30 30 31 31 31
22 22 23 23 24 25 26 26 27 27 28 28 28 29 29 29 30 30 30 30 30 30 30 30 30 31 31 32 31 31 31 31 31 31 30 30 30 30 30 30 30 29 28 27 26 26 27 28 28 28 28 28 27 27 27 27 27 27 27 27 28 28 29 30 30 30 31 32 32
23 23 24 24 25 26 26 27 27 27 28 28 28 29 29 29 29 29 30 30 30 30 30 30 30 31 31 31 31 30 30 29 29 29 29 29 29 29 29 29 29 29 28 27 27 28 29 30 31 31 30 29 29 28 27 27 27 26 26 26 27 28 29 30 30 31 31 32 32
23 24 24 25 26 26 26 27 27 27 28 28 28 29 29 29 29 29 29 29 29 29 29 29 30 30 30 30 30 29 28 28 28 28 28 29 29 29 29 29 29 29 28 28 29 30 31 32 32 33 32 31 29 28 27 27 27 26 26 26 27 27 28 29 29 30 32 32 33
24 24 25 26 26 26 26 27 27 27 27 28 28 28 28 29 29 29 29 29 29 29 29 29 29 29 29 28 28 28 28 28 28 28 28 28 28 29 29 29 29 28 29 30 31 33 33 34 34 34 33 32 30 28 27 27 27 27 26 25 25 26 27 27 28 30 31 33 34
24 25 25 26 26 26 26 26 26 27 27 27 27 28 28 29 29 29 28 28 29 29 28 28 28 27 27 27 27 28 28 28 28 27 27 27 28 28 29 28 29 29 30 31 33 34 34 34 34 34 34 33 31 29 28 28 28 27 26 25 25 25 26 26 27 28 30 32 33
24 25 25 26 26 26 26 26 26 26 27 27 27 28 28 28 28 28 28 28 28 28 28 28 27 27 26 27 27 27 28 28 27 27 27 27 27 28 28 28 29 29 30 32 33 34 34 34 34 34 34 34 33 31 29 28 27 26 26 25 24 24 25 25 26 27 29 30 31
24 24 25 25 26 26 26 26 26 26 26 26 27 27 28 28 28 28 28 28 28 28 28 28 27 27 27 27 27 27 27 27 27 27 27 27 27 28 28 29 29 30 31 32 33 33 34 34 34 34 34 34 34 31 29 28 27 25 24 23 23 24 24 25 26 27 28 29 30
23 24 25 25 25 25 26 26 26 26 26 26 27 27 27 27 27 28 28 29 29 29 29 29 28 28 27 27 27 27 27 27 27 27 27 27 28 28 29 30 30 30 30 31 32 33 33 33 33 34 34 34 34 31 29 27 26 24 22 22 22 23 24 25 25 26 28 29 30
23 24 24 25 25 25 26 26 26 26 26 27 27 27 27 27 28 28 29 29 29 29 29 28 28 27 27 27 27 27 27 27 27 27 27 27 28 29 30 30 30 30 30 31 32 33 33 33 33 33 33 33 33 31 28 25 23 22 21 21 22 23 24 25 25 26 27 29 29
23 24 24 24 25 26 26 26 26 26 26 27 26 26 27 28 29 29 29 29 29 29 28 28 27 27 27 27 27 27 27 27 27 27 28 28 29 30 30 30 29 29 30 31 32 33 33 33 33 33 33 32 30 27 25 23 22 21 21 22 23 24 25 26 27 27 28 28 28
23 24 24 24 25 26 26 26 26 26 26 26 26 27 27 28 29 29 29 29 28 28 28 27 27 27 27 27 27 27 27 28 28 28 28 29 29 30 30 30 29 29 30 32 32 33 33 33 33 32 32 30 26 24 22 21 21 21 22 23 24 25 26 27 28 28 28 28 27
23 24 24 25 25 26 26 26 27 27 27 27 27 27 28 28 29 29 29 29 28 28 27 27 27 27 28 28 28 28 28 28 29 29 29 29 30 30 30 30 29 30 31 31 32 32 32 32 32 32 30 27 24 22 21 21 21 21 22 24 25 26 27 28 28 27 27 27 26
23 24 24 25 26 26 26 27 27 27 27 27 27 28 28 29 29 29 28 28 28 28 27 27 28 28 28 28 28 28 28 29 29 30 30 30 30 30 30 30 30 29 30 31 31 32 32 32 32 31 29 26 24 22 22 22 21 22 23 24 26 27 28 28 27 26 26 25 26
24 24 25 26 26 26 27 27 27 27 27 27 28 28 29 29 29 28 28 27 27 27 27 27 28 28 28 28 29 29 29 29 30 30 30 30 30 30 30 30 29 29 29 30 31 31 31 31 31 31 29 27 25 23 22 22 21 22 24 26 26 27 27 26 25 24 24 25 26
25 25 26 26 27 27 27 28 28 28 28 28 29 29 29 29 29 28 27 27 27 28 28 28 28 28 29 29 29 30 30 30 30 30 31 30 30 30 30 30 29 29 29 29 30 30 30 31 31 31 30 29 26 24 23 21 22 24 25 26 26 27 26 24 23 23 24 26 28
25 26 26 27 27 28 28 28 28 28 29 29 29 29 29 29 28 28 27 27 27 28 29 29 29 29 30 30 30 30 30 31 31 30 30 30 30 30 30 29 29 29 29 29 29 29 29 30 30 31 31 30 27 25 23 23 24 25 26 26 26 25 24 23 23 24 26 28 29
26 27 27 27 28 28 29 29 29 30 30 30 30 30 30 29 29 28 28 28 28 29 29 30 30 31 31 31 31 31 31 31 31 31 30 30 30 30 30 29 29 28 28 28 28 28 29 29 30 30 31 30 28 26 25 24 25 26 26 26 26 25 25 26 26 26 27 28 29
28 28 28 28 28 29 29 30 30 31 31 31 30 30 30 30 30 29 29 29 29 30 30 30 31 31 32 32 31 31 31 32 32 31 31 31 31 30 29 29 29 28 28 27 27 28 28 29 29 30 30 30 28 27 26 24 25 25 26 27 27 27 27 27 27 27 26 27 28
Wind_Direction
14 12 10 6 1 355 349 343 339 334 331 328 325 322 320 318 315 313 312 311 310 309 309 308 306 305 304 303 301 298 296 293 290 287 282 277 272 266 262 258 256 254 254 254 254 254 253 253 252 252 252 253 252 252 251 251 251 250 249 248 248 248 247 245 244 243 242 241 240
11 10 9 7 3 358 353 348 343 339 335 332 328 325 322 321 318 317 315 314 313 312 312 311 310 309 309 307 306 303 301 299 297 294 292 288 285 281 276 270 265 261 259 258 258 258 257 256 254 253 253 253 253 253 253 253 253 252 251 250 250 250 250 249 248 247 246 245 244
6 6 5 4 1 357 353 348 344 340 337 334 331 328 325 322 320 319 317 316 315 314 314 314 314 313 312 312 310 309 307 306 304 302 300 296 293 290 287 283 278 273 268 265 264 263 263 263 261 260 258 256 253 253 254 254 254 254 253 253 253 253 252 252 251 251 250 249 248
0 360 359 359 357 354 350 346 342 339 336 334 332 329 326 324 322 320 319 318 317 316 316 316 316 315 315 314 314 313 312 310 309 307 305 302 299 296 293 291 288 285 281 277 273 270 268 268 268 267 266 264 261 258 256 256 256 255 255 255 255 254 254 254 254 253 252 251 251
352 352 353 353 353 351 348 345 341 338 335 333 330 328 326 325 324 323 322 320 319 318 317 317 317 317 317 317 317 316 315 314 313 311 309 307 304 302 299 296 293 291 289 287 283 279 275 272 270 270 270 269 268 266 263 259 258 257 257 257 257 256 255 255 255 255 254 253 252
344 344 346 348 348 347 346 344 341 338 335 333 331 329 328 328 328 327 326 324 322 321 321 321 321 321 321 321 320 320 319 318 317 315 314 312 309 307 305 303 300 298 295 292 290 287 284 280 275 271 270 269 268 267 265 263 262 261 260 259 258 257 256 255 255 255 254 253 252
339 338 339 341 343 344 343 342 340 339 337 335 333 332 332 333 333 332 330 328 327 327 327 327 327 327 327 326 325 323 322 321 320 319 318 316 314 313 311 309 307 305 302 299 296 293 290 287 282 276 271 268 267 266 265 263 263 263 262 260 259 258 257 255 255 255 254 252 252
339 337 337 338 341 342 343 343 341 340 338 337 336 335 336 336 337 336 334 333 333 333 333 333 333 332 331 329 327 325 324 323 322 321 320 319 318 316 315 313 312 310 308 306 304 300 297 294 290 284 278 272 269 268 267 267 267 266 264 261 260 259 257 255 255 254 253 252 252
340 339 339 340 343 344 345 344 343 342 340 338 338 338 339 339 339 338 336 335 335 335 335 335 333 332 330 328 326 324 323 323 322 321 320 319 317 316 315 314 313 312 311 310 308 306 302 299 295 290 285 280 276 274 273 272 271 270 268 266 264 263 261 258 256 255 253 252 251
340 340 341 343 345 346 346 345 344 342 341 340 339 340 340 340 338 337 336 334 334 334 334 333 331 330 328 326 325 323 322 322 320 319 317 316 315 314 312 312 311 310 309 309 309 307 305 301 296 292 289 286 284 282 280 278 276 273 272 270 269 268 267 265 262 259 257 256 254
338 340 342 344 346 346 346 345 344 342 341 340 339 339 339 337 336 334 333 332 332 332 331 330 329 327 326 325 324 323 322 320 319 317 315 314 312 311 310 308 307 306 305 305 306 305 304 301 297 294 291 289 288 286 284 282 280 278 276 274 274 273 272 270 267 265 263 261 258
339 340 341 343 345 345 345 344 343 342 341 340 339 338 337 335 334 332 332 331 331 330 329 328 327 327 326 325 324 322 321 319 317 315 314 312 311 310 308 307 305 304 303 302 302 301 299 297 294 292 290 290 289 287 286 284 283 282 280 279 278 276 274 272 270 269 267 265 264
339 341 342 344 344 345 344 344 342 341 340 339 338 337 335 334 333 332 332 331 331 330 328 328 328 327 326 325 323 321 320 318 316 315 313 312 310 309 307 306 305 304 303 301 300 298 296 293 291 288 287 287 287 286 286 285 284 283 283 282 281 279 277 275 274 273 272 271 269
341 342 343 344 344 345 344 343 341 340 339 337 336 335 334 333 333 333 333 332 331 329 329 328 328 327 326 324 323 321 319 318 317 315 313 312 310 308 306 305 304 303 302 301 299 297 294 292 289 287 285 284 284 284 285 285 284 283 282 282 282 282 281 281 281 279 277 275 274
343 343 344 344 344 344 344 342 340 338 337 336 335 334 334 333 333 333 332 331 330 329 329 328 327 326 325 324 322 321 320 319 317 316 314 313 311 309 307 306 304 303 302 300 298 296 294 292 289 287 285 284 283 284 284 283 283 282 282 282 282 283 284 285 285 284 282 280 278
344 344 344 344 344 343 342 341 339 338 336 335 334 334 333 333 332 332 331 330 329 328 328 326 325 324 324 323 322 321 319 318 317 316 315 313 312 310 309 307 305 304 302 300 298 296 295 293 290 288 286 284 284 283 283 282 281 281 281 281 281 282 283 284 285 286 285 283 281
344 344 344 344 343 342 341 340 338 337 335 334 333 333 332 332 331 331 330 329 328 326 325 324 323 322 320 320 320 320 318 316 315 314 314 313 312 311 310 308 307 305 303 301 299 298 296 294 292 290 287 285 284 283 282 281 280 280 280 280 281 282 283 284 285 285 285 284 282
343 343 343 343 342 341 340 339 338 336 334 333 332 331 331 331 330 329 328 327 327 325 322 321 321 319 318 316 317 317 316 314 314 313 312 311 311 310 309 309 308 308 307 306 304 302 300 298 296 293 291 289 287 285 284 283 283 283 283 284 285 286 287 287 288 287 286 285 284
342 342 342 342 341 340 339 338 337 335 333 332 331 330 330 329 329 328 327 326 325 324 322 320 319 318 316 315 315 315 315 313 312 311 311 310 309 309 309 309 309 310 310 310 309 308 306 304 302 300 298 296 294 292 291 291 290 290 290 291 291 292 292 293 293 292 291 289 287
341 341 340 340 339 339 338 337 335 334 332 331 330 329 329 328 328 327 325 325 324 323 322 319 317 316 315 315 315 314 314 313 312 311 310 310 309 309 309 309 310 310 311 311 311 310 309 308 307 306 305 304 302 301 300 300 299 299 298 298 298 298 297 298 297 296 294 292 290
339 339 338 338 337 337 336 335 333 332 331 330 329 328 327 327 326 325 324 324 323 322 321 319 317 316 315 315 315 314 314 313 312 311 310 310 309 310 310 310 310 311 311 311 310 310 309 309 310 311 311 311 310 309 308 307 306 304 304 303 303 302 302 301 300 298 296 294 291
337 336 336 335 335 334 333 332 331 330 329 328 327 326 326 325 325 324 323 323 322 321 319 318 317 316 315 315 315 314 313 312 312 311 310 310 310 310 311 311 311 311 311 311 310 310 311 312 314 316 317 317 317 315 314 312 310 308 307 306 305 305 304 303 301 300 297 295 293
335 335 334 334 333 332 331 330 329 327 326 325 325 324 323 323 322 322 321 321 320 319 318 316 316 315 315 315 314 314 313 313 312 311 311 311 311 311 312 313 313 312 312 311 311 312 314 317 319 321 322 322 321 320 318 316 314 311 309 307 306 305 304 303 302 300 298 296 294
335 335 334 333 332 331 329 328 326 325 324 323 323 322 321 320 320 320 319 318 317 316 316 315 315 315 315 314 313 313 312 312 312 312 312 312 312 313 313 314 314 314 313 313 313 315 317 320 322 324 325 325 324 323 321 319 317 314 312 309 307 306 305 304 303 301 299 298 296
336 336 335 334 332 330 328 326 325 323 322 322 321 320 319 319 318 317 316 315 314 314 314 314 314 314 314 313 313 312 312 311 311 312 312 313 313 314 314 315 315 315 315 315 316 317 319 321 323 324 325 326 326 325 323 322 320 317 314 310 309 307 306 304 303 302 301 300 298
336 336 335 333 331 329 326 325 323 322 321 320 320 319 318 318 316 315 314 313 312 313 313 313 313 313 312 312 312 311 311 311 312 312 313 313 314 314 315 315 316 316 317 317 318 319 320 321 322 323 324 326 327 327 326 324 322 318 315 311 309 308 307 305 304 303 303 303 301
337 336 334 332 330 327 325 323 322 321 320 320 319 319 318 317 316 314 313 313 312 312 312 312 312 311 311 310 311 311 311 311 312 312 313 313 314 315 315 316 316 317 318 319 320 320 320 321 322 322 324 326 327 328 327 325 322 319 316 312 309 308 307 305 304 304 305 305 304
337 335 333 331 328 326 324 323 322 321 320 320 319 318 317 317 316 315 314 314 313 313 313 312 311 310 310 310 310 311 311 312 313 313 314 314 315 315 316 316 316 316 317 319 319 320 320 320 321 322 324 326 328 328 327 324 321 318 315 312 310 308 307 306 305 305 305 305 305
336 334 331 329 327 325 324 323 322 321 320 320 319 318 317 317 316 315 315 315 314 313 312 311 310 310 310 310 311 311 312 313 314 315 315 316 316 316 316 316 316 316 317 318 318 318 319 319 320 322 323 325 327 327 325 323 320 317 314 311 310 309 308 307 306 305 305 304 304
334 332 330 328 326 325 324 323 322 321 321 320 319 319 318 317 316 316 316 315 314 312 311 310 310 310 310 311 312 313 313 314 316 317 318 318 318 318 317 317 316 316 316 317 317 317 318 319 320 322 324 326 326 326 324 322 319 316 312 310 310 309 308 307 305 305 305 305 304
332 330 328 327 325 324 324 323 322 321 321 320 320 319 318 317 317 316 316 315 313 312 311 311 310 310 311 312 313 314 314 316 317 318 319 319 319 318 317 317 316 315 315 315 316 316 318 319 321 324 326 327 326 325 324 322 320 317 313 311 310 310 309 308 307 306 306 305 305
330 328 327 326 325 324 324 323 322 321 320 320 319 319 318 317 317 316 315 314 313 312 312 311 311 311 312 314 314 315 316 317 318 319 319 319 318 317 317 316 315 315 314 315 316 317 319 321 324 326 328 328 327 326 326 325 323 320 316 314 313 312 312 311 309 307 307 307 307
328 327 326 325 324 323 323 322 321 320 320 319 319 318 317 317 317 316 315 314 313 313 312 312 313 313 314 315 315 316 316 317 318 318 319 319 318 317 316 315 315 315 316 316 318 320 322 325 327 329 329 329 330 331 331 330 327 324 321 318 317 317 316 314 312 311 310 309 309
327 326 325 324 323 322 322 321 320 320 319 318 318 317 317 317 316 315 315 314 314 313 313 314 315 315 315 316 316 316 316 317 317 318 318 318 317 316 315 314 315 316 317 319 320 323 325 327 329 330 332 334 336 337 336 333 329 326 323 321 320 319 318 316 315 314 313 312 312
325 324 323 322 322 321 320 320 319 319 318 317 317 317 317 316 315 314 314 314 314 314 314 316 317 317 317 317 316 316 316 316 316 317 317 316 316 315 314 314 314 316 318 321 323 325 326 328 330 333 336 340 342 340 337 333 329 326 324 323 321 320 318 317 315 314 314 315 316
324 323 321 320 320 319 319 318 318 318 317 317 316 316 316 316 315 314 314 314 314 315 316 317 318 317 317 316 316 315 315 315 315 315 315 315 315 314 314 314 315 317 320 322 324 325 327 329 332 336 341 344 344 341 337 334 330 327 326 324 321 320 318 316 315 314 316 317 318
323 322 320 319 318 318 318 317 317 317 316 316 316 315 315 315 314 313 314 315 315 316 316 317 317 316 315 315 315 314 315 315 315 315 314 314 314 313 313 314 315 318 321 323 324 325 327 330 334 339 343 345 343 341 338 334 330 328 327 325 322 320 319 317 316 316 318 319 318
322 321 320 318 317 317 317 317 316 316 315 315 315 315 314 314 313 313 314 316 316 316 316 316 315 315 314 314 314 314 314 315 315 314 313 313 313 313 313 314 316 318 321 322 323 325 327 331 336 340 343 344 343 341 338 333 330 328 327 325 323 321 320 320 320 319 319 318 317
321 320 319 318 317 316 316 316 315 315 315 315 314 314 314 314 313 314 314 316 316 316 316 315 314 313 314 314 314 314 314 314 314 313 313 312 312 312 313 313 315 318 320 322 323 325 328 332 335 339 341 342 342 340 337 332 330 328 327 326 325 324 323 323 322 320 317 316 315
320 320 318 318 317 316 316 315 315 315 315 314 314 314 314 314 313 314 315 315 316 316 315 314 313 313 314 314 314 313 313 313 313 313 312 312 312 312 313 314 315 317 319 321 323 325 328 331 334 336 338 340 340 339 336 332 330 329 329 328 327 326 324 322 320 317 315 314 314
320 319 318 317 317 317 316 315 314 314 315 314 314 314 314 314 314 314 315 315 315 315 315 314 313 313 314 314 313 313 312 312 312 312 312 311 312 313 314 315 316 317 319 321 323 326 328 331 333 334 336 338 338 338 336 333 331 330 330 329 328 326 323 320 317 315 313 313 313
Height
748 747 747 746 745 744 744 743 742 742 741 740 739 739 738 737 737 736 735 734 734 733 732 732 731 730 729 728 728 727 726 726 725 724 723 722 721 720 720 719 718 718 717 716 716 716 715 715 714 714 713 712 711 710 709 708 707 706 705 704 703 703 702 702 701 700 699 698 698
748 748 747 746 745 745 744 743 742 742 741 740 739 738 738 737 736 735 735 734 733 733 732 731 730 729 729 728 727 726 726 725 724 723 722 721 720 720 719 718 717 717 716 715 715 714 713 713 713 712 711 710 709 708 707 706 705 704 703 702 702 701 700 700 698 698 697 697 697
749 748 748 747 746 745 744 743 743 742 741 740 739 738 738 737 736 736 735 734 733 733 732 731 730 729 728 728 727 726 725 724 723 722 721 720 719 719 718 717 716 715 714 714 714 713 713 712 711 710 708 707 707 706 705 704 703 703 702 701 700 699 699 698 697 696 696 696 695
749 749 748 747 747 746 745 744 743 742 741 740 740 739 738 738 737 736 735 734 733 733 732 731 730 729 728 727 726 725 724 723 723 722 720 719 718 718 717 716 715 714 713 712 712 711 711 710 710 709 707 706 705 704 703 702 702 701 700 699 698 698 697 696 695 695 694 693 693
749 749 748 748 747 746 745 745 744 743 742 741 740 739 738 738 737 736 735 734 734 733 732 731 730 729 728 727 726 725 724 723 722 721 720 719 718 717 716 715 714 713 712 711 710 709 708 708 708 707 707 706 704 703 702 701 700 698 698 697 696 695 694 693 693 693 692 691 691
750 749 748 748 747 746 746 745 744 743 742 741 740 739 738 738 737 737 736 735 734 733 732 731 730 729 728 728 727 725 724 723 722 721 720 718 717 716 715 714 713 712 711 710 709 708 707 706 705 705 704 703 703 702 700 699 698 697 696 695 694 693 692 691 690 690 690 689 688
750 749 748 748 747 746 746 745 744 743 742 741 740 740 739 738 737 737 736 735 734 733 732 731 731 729 728 728 726 725 724 723 722 721 719 718 717 716 715 713 713 711 710 709 708 707 706 705 704 703 702 702 700 699 698 697 695 694 693 693 691 691 690 689 688 688 687 686 685
750 749 749 748 747 747 746 745 744 743 742 741 741 740 739 738 738 737 736 735 734 733 732 731 730 729 728 727 726 725 724 723 721 720 719 718 717 715 714 713 712 710 709 708 707 706 705 704 703 701 700 699 698 697 696 695 694 693 691 690 688 688 687 686 685 685 684 683 682
750 749 749 748 747 746 746 745 744 743 742 742 741 740 739 738 737 736 736 735 734 733 732 731 730 729 728 727 726 725 724 723 721 720 719 718 716 715 713 712 711 710 708 707 706 705 704 703 702 700 699 698 697 696 694 693 692 691 689 688 687 685 684 684 683 682 681 680 679
750 749 749 748 747 746 746 745 744 743 743 742 741 740 739 738 737 737 736 735 733 733 732 731 730 729 728 727 725 724 723 722 721 719 718 717 715 714 713 712 710 709 707 706 705 704 703 702 700 699 698 697 695 694 693 692 691 689 688 687 685 684 683 682 681 679 678 678 676
751 750 749 748 747 746 745 745 744 743 743 742 741 740 739 738 737 737 736 734 733 732 732 731 730 728 727 726 725 723 722 721 720 718 717 715 714 713 712 710 709 708 706 705 704 703 701 700 699 698 696 695 694 693 691 690 689 687 686 684 683 682 681 680 679 678 676 675 674
751 750 749 748 747 747 746 745 744 743 743 742 741 740 739 738 737 736 735 734 733 732 731 730 729 728 726 725 724 723 721 720 718 717 716 714 713 712 710 709 708 706 705 703 702 701 700 698 697 696 694 693 692 691 690 688 687 686 684 682 681 680 679 678 677 676 675 673 672
751 750 749 748 748 747 746 745 744 743 742 741 741 740 739 738 737 736 735 733 733 731 730 729 728 727 726 724 723 722 720 719 718 716 714 713 712 710 709 708 706 705 703 702 701 699 698 696 695 694 693 691 690 689 688 687 685 684 682 681 679 678 677 675 674 673 673 672 671
751 750 749 748 748 747 746 745 744 743 742 741 740 739 738 738 737 735 734 733 732 731 729 728 727 726 725 724 722 721 719 718 716 715 713 712 710 709 708 706 705 703 702 700 699 698 696 695 693 692 690 689 688 687 686 684 683 682 681 679 678 677 675 674 673 672 671 670 669
751 750 749 748 748 747 746 745 744 743 742 741 740 739 738 737 736 735 734 733 732 730 729 728 727 725 724 723 721 720 718 717 715 713 712 710 709 708 706 705 703 702 700 698 697 696 694 693 692 690 688 687 685 684 683 682 681 680 679 678 676 675 674 672 671 670 669 668 667
751 750 749 748 748 747 746 745 744 743 742 741 740 739 738 737 736 735 734 733 731 730 728 728 726 725 723 722 721 719 717 715 714 712 711 709 707 706 704 703 701 700 698 697 695 693 692 691 689 688 687 685 683 682 681 680 679 678 677 676 674 673 672 671 670 669 668 666 665
751 750 749 748 748 747 746 745 744 743 742 741 740 739 738 737 735 734 733 732 731 729 728 727 725 724 722 721 719 718 716 714 713 711 709 708 706 704 703 701 699 698 696 694 693 691 690 688 687 686 684 683 682 680 679 678 677 676 675 674 673 672 671 669 668 667 666 664 663
751 750 749 748 748 747 746 745 743 743 742 741 739 738 737 736 735 734 733 731 730 729 727 726 724 723 721 719 718 717 715 713 711 710 708 706 705 703 701 699 698 696 694 693 691 689 688 686 685 683 682 681 680 678 677 676 675 674 673 672 671 670 669 668 667 665 664 663 661
750 750 749 748 747 746 745 744 743 742 741 740 739 738 737 735 734 733 732 731 729 728 726 724 723 722 720 718 717 715 714 712 710 708 707 705 703 701 699 698 696 694 693 691 689 687 685 684 683 681 680 679 678 676 675 674 673 672 671 670 669 668 667 666 665 664 663 661 659
750 749 749 748 747 746 745 744 743 742 741 739 738 737 736 734 733 732 731 730 728 727 726 724 722 720 718 717 715 714 712 711 709 707 705 703 702 700 698 696 694 692 691 689 687 685 684 683 681 679 678 677 676 675 673 673 672 671 669 668 668 666 665 664 663 662 661 659 658
750 749 748 748 747 746 745 744 743 742 740 739 738 737 735 734 733 732 730 729 728 726 724 723 721 719 718 716 714 713 711 709 708 706 703 702 700 698 696 694 693 691 689 687 686 684 683 681 680 678 677 676 675 673 673 671 670 669 668 667 666 665 663 662 661 660 658 657 656
750 749 748 748 747 746 745 744 743 742 740 739 738 736 735 733 732 731 729 728 727 725 723 722 720 718 717 715 713 711 709 708 706 704 702 700 698 697 695 693 691 689 688 686 684 683 681 680 679 678 676 675 673 672 671 670 669 667 666 665 664 663 662 660 659 658 657 655 653
750 749 748 748 747 746 745 744 743 742 740 739 737 736 734 733 732 730 729 727 726 724 723 721 719 718 716 714 713 711 708 707 705 703 701 699 697 695 694 692 690 688 687 685 683 682 680 679 678 676 675 674 673 671 670 669 667 666 664 663 662 661 659 658 657 656 654 653 651
750 749 748 748 747 746 745 744 743 741 740 739 737 736 734 733 732 730 728 727 725 724 722 721 719 717 715 713 712 710 708 706 703 702 700 698 696 694 693 691 689 687 686 684 683 681 680 678 677 675 674 673 671 670 669 668 666 665 663 662 660 658 657 656 654 653 652 650 649
751 750 749 748 747 746 745 744 743 741 740 739 737 736 734 733 731 730 728 726 725 723 722 720 718 717 715 713 711 709 707 705 703 701 699 697 695 693 692 690 688 687 685 683 682 681 680 678 677 675 673 672 671 669 667 666 665 663 662 660 658 657 655 653 652 651 649 648 646
751 750 749 748 748 746 745 744 743 742 740 739 737 736 734 733 731 729 728 726 724 723 721 719 718 716 714 712 710 708 706 704 703 700 698 696 694 692 691 689 688 686 684 683 681 680 678 678 676 675 673 671 670 668 666 664 663 662 660 659 657 655 653 651 649 648 646 645 643
752 751 750 749 748 747 746 744 743 742 740 738 737 735 734 732 731 729 727 726 724 722 721 719 717 716 713 712 709 708 705 703 702 700 698 696 694 692 690 688 687 685 683 682 680 679 678 676 675 674 672 671 669 667 665 663 662 660 659 657 655 654 652 650 648 646 644 642 641
752 751 750 749 748 747 746 744 743 741 740 738 737 735 733 732 730 728 727 725 723 722 720 718 717 715 713 711 709 707 705 703 701 699 697 695 693 691 689 688 686 684 683 681 679 678 677 675 674 672 671 669 668 666 664 662 660 659 657 655 654 652 650 648 647 645 643 640 638
753 752 751 750 748 747 746 744 743 741 739 738 736 735 733 732 730 728 726 724 723 721 719 717 716 714 712 710 708 706 704 702 700 698 696 694 693 691 689 687 685 683 682 680 679 677 676 674 673 671 670 668 667 665 663 661 659 657 655 654 652 650 649 647 645 643 641 639 637
753 752 751 750 748 747 745 744 743 741 739 738 736 734 733 731 729 727 726 724 722 720 718 717 715 713 711 709 707 705 703 701 700 698 696 694 692 690 689 687 685 683 682 680 678 677 675 673 672 670 668 667 665 664 662 660 658 656 654 652 650 649 647 646 644 642 640 638 635
753 753 751 749 748 747 745 744 742 741 739 737 736 734 732 730 728 727 725 723 721 719 718 716 713 712 710 708 706 704 702 700 699 697 695 693 691 689 688 686 684 683 681 679 678 676 674 673 671 669 668 666 664 662 660 658 657 654 653 651 649 648 646 644 643 641 639 636 634
754 752 751 749 748 746 745 743 742 740 738 737 735 733 732 730 728 726 724 722 720 718 716 714 712 710 708 706 705 703 701 699 698 696 694 693 691 688 687 685 683 682 680 678 677 675 673 672 670 668 666 664 663 660 658 657 655 653 651 650 648 647 645 643 641 639 637 635 634
753 752 750 749 747 746 744 743 741 739 738 736 734 733 731 729 727 725 723 721 719 717 715 713 711 709 707 705 703 701 700 698 696 695 693 691 690 688 686 684 682 680 679 677 676 674 672 670 668 667 665 663 661 659 657 655 654 652 650 648 647 645 644 642 640 638 636 634 632
753 751 750 748 747 745 743 742 740 738 737 735 733 731 730 728 726 723 722 720 718 716 714 712 710 708 706 704 703 700 698 697 695 693 692 690 688 686 684 683 681 679 678 676 674 673 671 669 667 665 663 661 659 657 656 654 653 651 649 647 645 644 642 640 639 637 635 633 631
752 750 749 747 746 744 742 741 739 737 735 733 732 730 728 727 725 723 720 718 716 714 713 711 709 707 705 703 702 700 698 695 694 692 690 688 687 685 683 681 680 678 677 675 673 671 670 668 666 664 662 660 658 656 655 653 651 649 648 646 644 642 641 639 637 635 633 631 629
752 750 748 746 745 743 741 739 738 736 734 732 730 728 727 725 723 721 719 717 715 713 711 709 708 706 704 702 700 698 696 694 692 690 689 687 686 683 681 679 678 677 675 673 672 670 668 667 665 663 661 659 657 655 653 652 650 648 646 644 643 641 639 637 635 633 631 630 628
751 749 747 745 743 742 740 738 736 734 733 731 729 727 725 723 721 719 718 716 713 711 709 708 706 704 702 700 698 697 695 693 691 689 687 686 684 682 680 678 676 675 674 672 670 669 667 665 663 662 660 658 656 654 653 651 649 647 645 643 641 639 638 636 634 632 630 629 627
750 748 746 744 742 740 738 737 735 733 731 729 728 726 724 722 720 718 716 715 713 710 708 706 705 703 701 699 697 695 693 692 690 688 686 684 682 681 678 676 674 673 672 671 669 668 666 664 663 661 659 657 655 653 652 650 648 646 644 643 640 638 636 635 633 631 629 627 626
748 747 745 743 741 739 738 736 734 732 730 728 726 724 723 721 719 717 715 714 712 710 707 705 703 701 700 698 695 693 692 690 689 687 684 682 681 679 677 675 673 672 671 669 668 666 665 663 662 660 658 656 655 653 651 649 647 645 643 642 639 637 635 634 633 630 628 626 624
748 746 744 742 740 738 736 734 733 731 729 727 725 723 721 720 718 716 714 713 711 709 707 704 702 700 698 697 694 692 690 688 687 685 683 681 679 678 676 674 672 670 669 668 666 665 663 662 660 659 658 656 654 653 651 649 647 645 643 641 639 637 635 633 632 630 627 625 623
746 744 743 741 739 738 735 733 731 729 728 726 724 722 720 719 717 715 713 712 710 708 706 703 701 699 697 695 693 691 688 686 684 683 682 679 678 676 674 673 670 669 668 666 665 664 662 661 659 658 657 655 653 652 651 649 647 645 643 641 639 637 635 632 630 628 626 624 622